Météo par heure à Paris

Ce jour, 14 Mai, Vendredi

Heure Température Précipitation Vent Pression Humidité
00:00 +8°C° 0 mm 2 m/s 750 mmHg 93%
01:00 +7°C° 0 mm 2 m/s 750 mmHg 94%
02:00 +7°C° 0 mm 2 m/s 750 mmHg 94%
03:00 +7°C° 0 mm 2 m/s 750 mmHg 94%
04:00 +7°C° 0 mm 2 m/s 750 mmHg 94%
05:00 +7°C° 0 mm 3 m/s 751 mmHg 93%
06:00 +8°C° 0 mm 3 m/s 751 mmHg 92%
07:00 +8°C° 0.1 mm 3 m/s 751 mmHg 91%
08:00 +9°C° 0.1 mm 3 m/s 751 mmHg 90%
09:00 +10°C° 0.1 mm 3 m/s 751 mmHg 89%
10:00 +10°C° 0.4 mm 4 m/s 751 mmHg 89%
11:00 +11°C° 0.4 mm 4 m/s 751 mmHg 88%
12:00 +11°C° 0.4 mm 4 m/s 751 mmHg 87%
13:00 +12°C° 0.6 mm 4 m/s 751 mmHg 85%
14:00 +12°C° 0.6 mm 4 m/s 751 mmHg 82%
15:00 +13°C° 0.6 mm 4 m/s 751 mmHg 80%
16:00 +13°C° 0.3 mm 4 m/s 751 mmHg 81%
17:00 +12°C° 0.3 mm 3 m/s 752 mmHg 83%
18:00 +12°C° 0.3 mm 3 m/s 752 mmHg 85%
19:00 +11°C° 0 mm 3 m/s 752 mmHg 87%
20:00 +10°C° 0 mm 2 m/s 752 mmHg 89%
21:00 +10°C° 0 mm 1 m/s 752 mmHg 92%
22:00 +9°C° 0 mm 2 m/s 752 mmHg 93%
23:00 +8°C° 0 mm 2 m/s 752 mmHg 94%

Demain, 15 Mai, Samedi

Heure Température Précipitation Vent Pression Humidité
00:00 +8°C° 0 mm 3 m/s 751 mmHg 95%
01:00 +8°C° 0.1 mm 3 m/s 751 mmHg 95%
02:00 +8°C° 0.1 mm 3 m/s 751 mmHg 94%
03:00 +7°C° 0.1 mm 4 m/s 750 mmHg 94%
04:00 +7°C° 0.5 mm 4 m/s 750 mmHg 94%
05:00 +7°C° 0.5 mm 4 m/s 749 mmHg 94%
06:00 +7°C° 0.5 mm 4 m/s 749 mmHg 95%
07:00 +7°C° 0.3 mm 4 m/s 749 mmHg 95%
08:00 +7°C° 0.3 mm 4 m/s 748 mmHg 95%
09:00 +8°C° 0.3 mm 5 m/s 748 mmHg 96%
10:00 +10°C° 0.2 mm 5 m/s 747 mmHg 85%
11:00 +13°C° 0.2 mm 6 m/s 747 mmHg 75%
12:00 +15°C° 0.2 mm 7 m/s 747 mmHg 64%
13:00 +15°C° 0.6 mm 6 m/s 747 mmHg 68%
14:00 +14°C° 0.6 mm 6 m/s 748 mmHg 73%
15:00 +14°C° 0.6 mm 6 m/s 748 mmHg 77%
16:00 +13°C° 0.6 mm 5 m/s 748 mmHg 79%
17:00 +13°C° 0.6 mm 5 m/s 748 mmHg 81%
18:00 +12°C° 0.6 mm 4 m/s 748 mmHg 83%
19:00 +11°C° 0.3 mm 4 m/s 749 mmHg 86%
20:00 +11°C° 0.3 mm 4 m/s 749 mmHg 89%
21:00 +10°C° 0.3 mm 3 m/s 749 mmHg 92%
22:00 +9°C° 0.2 mm 3 m/s 749 mmHg 93%
23:00 +8°C° 0.2 mm 4 m/s 749 mmHg 94%

Après-demain, 16 Mai, Dimanche

Heure Température Précipitation Vent Pression Humidité
00:00 +8°C° 0.2 mm 4 m/s 749 mmHg 95%
01:00 +8°C° 0.3 mm 4 m/s 749 mmHg 96%
02:00 +8°C° 0.3 mm 4 m/s 749 mmHg 96%
03:00 +8°C° 0.3 mm 5 m/s 748 mmHg 96%
04:00 +8°C° 0.1 mm 5 m/s 748 mmHg 93%
05:00 +10°C° 0.1 mm 4 m/s 748 mmHg 91%
06:00 +10°C° 0.1 mm 4 m/s 749 mmHg 89%
07:00 +10°C° 0.1 mm 5 m/s 748 mmHg 81%
08:00 +12°C° 0.1 mm 5 m/s 748 mmHg 74%
09:00 +14°C° 0.1 mm 6 m/s 748 mmHg 66%
10:00 +15°C° 0.2 mm 6 m/s 748 mmHg 62%
11:00 +15°C° 0.2 mm 7 m/s 748 mmHg 58%
12:00 +16°C° 0.2 mm 7 m/s 748 mmHg 54%
13:00 +16°C° 0.5 mm 7 m/s 748 mmHg 61%
14:00 +15°C° 0.5 mm 7 m/s 748 mmHg 68%
15:00 +15°C° 0.5 mm 7 m/s 748 mmHg 75%
16:00 +14°C° 0.6 mm 7 m/s 748 mmHg 78%
17:00 +13°C° 0.6 mm 6 m/s 748 mmHg 81%
18:00 +11°C° 0.6 mm 6 m/s 748 mmHg 85%
19:00 +11°C° 0.6 mm 6 m/s 748 mmHg 87%
20:00 +10°C° 0.6 mm 6 m/s 749 mmHg 90%
21:00 +9°C° 0.6 mm 6 m/s 749 mmHg 92%
22:00 +9°C° 0.1 mm 6 m/s 749 mmHg 91%
23:00 +9°C° 0.1 mm 7 m/s 749 mmHg 90%

17 Mai, Lundi

Heure Température Précipitation Vent Pression Humidité
00:00 +9°C° 0.1 mm 7 m/s 749 mmHg 89%
01:00 +9°C° 0.1 mm 7 m/s 749 mmHg 88%
02:00 +9°C° 0.1 mm 6 m/s 749 mmHg 87%
03:00 +9°C° 0.1 mm 6 m/s 749 mmHg 87%
04:00 +9°C° 0.1 mm 6 m/s 749 mmHg 87%
05:00 +9°C° 0.1 mm 6 m/s 750 mmHg 87%
06:00 +9°C° 0.1 mm 6 m/s 750 mmHg 88%
07:00 +9°C° 0.1 mm 6 m/s 750 mmHg 85%
08:00 +10°C° 0.1 mm 6 m/s 751 mmHg 82%
09:00 +10°C° 0.1 mm 6 m/s 751 mmHg 80%
10:00 +11°C° 0.2 mm 6 m/s 751 mmHg 76%
11:00 +12°C° 0.2 mm 7 m/s 751 mmHg 73%
12:00 +14°C° 0.2 mm 7 m/s 751 mmHg 70%
13:00 +14°C° 0.5 mm 6 m/s 751 mmHg 72%
14:00 +14°C° 0.5 mm 6 m/s 751 mmHg 74%
15:00 +14°C° 0.5 mm 6 m/s 751 mmHg 76%
16:00 +14°C° 0.4 mm 6 m/s 752 mmHg 79%
17:00 +13°C° 0.4 mm 5 m/s 752 mmHg 82%
18:00 +12°C° 0.4 mm 5 m/s 752 mmHg 85%
19:00 +10°C° 0.1 mm 5 m/s 753 mmHg 87%
20:00 +9°C° 0.1 mm 5 m/s 754 mmHg 89%
21:00 +10°C° 0.1 mm 4 m/s 754 mmHg 91%
22:00 +8°C° 0 mm 4 m/s 755 mmHg 91%
23:00 +8°C° 0 mm 4 m/s 755 mmHg 92%

18 Mai, Mardi

Heure Température Précipitation Vent Pression Humidité
00:00 +7°C° 0 mm 5 m/s 756 mmHg 92%
01:00 +7°C° 0 mm 4 m/s 756 mmHg 93%
02:00 +6°C° 0 mm 4 m/s 757 mmHg 93%
03:00 +6°C° 0 mm 4 m/s 757 mmHg 94%
04:00 +6°C° 0 mm 4 m/s 757 mmHg 92%
05:00 +7°C° 0 mm 4 m/s 758 mmHg 91%
06:00 +7°C° 0 mm 4 m/s 758 mmHg 90%
07:00 +10°C° 0 mm 4 m/s 759 mmHg 81%
08:00 +11°C° 0 mm 4 m/s 759 mmHg 72%
09:00 +13°C° 0 mm 5 m/s 759 mmHg 63%
10:00 +13°C° 0.1 mm 5 m/s 759 mmHg 62%
11:00 +14°C° 0.1 mm 5 m/s 759 mmHg 61%
12:00 +14°C° 0.1 mm 5 m/s 759 mmHg 60%
13:00 +15°C° 0.1 mm 5 m/s 759 mmHg 59%
14:00 +15°C° 0.1 mm 5 m/s 759 mmHg 59%
15:00 +15°C° 0.1 mm 5 m/s 759 mmHg 58%
16:00 +14°C° 0.5 mm 5 m/s 759 mmHg 67%
17:00 +13°C° 0.5 mm 5 m/s 759 mmHg 76%
18:00 +12°C° 0.5 mm 4 m/s 759 mmHg 84%
19:00 +12°C° 0.4 mm 5 m/s 759 mmHg 86%
20:00 +10°C° 0.4 mm 5 m/s 759 mmHg 88%
21:00 +10°C° 0.4 mm 5 m/s 759 mmHg 90%
22:00 +10°C° 0.2 mm 5 m/s 759 mmHg 91%
23:00 +9°C° 0.2 mm 5 m/s 759 mmHg 91%

19 Mai, Mercredi

Heure Température Précipitation Vent Pression Humidité
00:00 +9°C° 0.2 mm 5 m/s 759 mmHg 92%
01:00 +8°C° 0 mm 5 m/s 759 mmHg 92%
02:00 +8°C° 0 mm 4 m/s 759 mmHg 93%
03:00 +7°C° 0 mm 4 m/s 760 mmHg 93%
04:00 +8°C° 0 mm 4 m/s 760 mmHg 92%
05:00 +8°C° 0 mm 4 m/s 760 mmHg 90%
06:00 +8°C° 0 mm 4 m/s 760 mmHg 88%
07:00 +10°C° 0 mm 4 m/s 760 mmHg 80%
08:00 +12°C° 0 mm 4 m/s 761 mmHg 72%
09:00 +13°C° 0 mm 4 m/s 761 mmHg 63%
10:00 +14°C° 0 mm 4 m/s 761 mmHg 58%
11:00 +17°C° 0 mm 4 m/s 761 mmHg 52%
12:00 +18°C° 0 mm 4 m/s 760 mmHg 46%
13:00 +18°C° 0 mm 4 m/s 760 mmHg 46%
14:00 +18°C° 0 mm 4 m/s 760 mmHg 46%
15:00 +18°C° 0 mm 4 m/s 760 mmHg 47%
16:00 +17°C° 0 mm 3 m/s 760 mmHg 53%
17:00 +17°C° 0 mm 3 m/s 759 mmHg 58%
18:00 +16°C° 0 mm 2 m/s 759 mmHg 64%
19:00 +14°C° 0.1 mm 3 m/s 759 mmHg 72%
20:00 +13°C° 0.1 mm 3 m/s 759 mmHg 79%
21:00 +12°C° 0.1 mm 3 m/s 759 mmHg 86%
22:00 +12°C° 0.8 mm 3 m/s 759 mmHg 90%
23:00 +12°C° 0.8 mm 2 m/s 759 mmHg 93%
Voir plus

Nous avons besoin de votre consentement

Meteoprog et ses fournisseurs de services peuvent stocker et accéder à des données personnelles telles que des cookies, des identifiants d'appareils ou d'autres technologies similaires sur votre appareil et traiter ces données pour personnaliser le contenu et les publicités, ainsi que pour fournir des fonctionnalités de médias sociaux et analyser le trafic.

  • Stocker et/ou accéder à des informations sur votre appareil

    Des cookies, des identifiants d'appareils ou d'autres informations peuvent être stockés ou accessibles sur votre appareil aux fins indiquées ci-dessus.

  • Annonces et contenus personnalisés, mesure des annonces et des contenus, connaissance de l'audience et développement de produits

    Les annonces et le contenu peuvent être personnalisés en fonction d'un profil. D'autres données peuvent être ajoutées pour mieux personnaliser les annonces et le contenu. Les performances des publicités et du contenu peuvent être mesurées. Il est possible d'obtenir des informations sur le public qui a vu les publicités et le contenu. Ces données peuvent être utilisées pour développer ou améliorer l'expérience de l'utilisateur, les systèmes et les logiciels.

En cliquant sur "J'accepte", vous autorisez l'utilisation de cookies, des identifiants d'appareils, des balises web ou d'autres technologies similaires. Vos paramètres peuvent être modifiés dans le navigateur de votre appareil.

Dans certains cas, des intérêts légitimes peuvent être invoqués plutôt qu'un consentement. Vous pouvez en savoir plus à ce sujet dans notre Politique de confidentialité et de cookies.